Year,Month,Day,Hour,Minute,Value (Times are PST for windgust in km/hr)
2004,07,04,00,00,3.20
2004,07,04,00,01,13.00
2004,07,04,00,02,16.20
2004,07,04,00,03,17.60
2004,07,04,00,04,19.40
2004,07,04,00,05,13.00
2004,07,04,00,06,7.90
2004,07,04,00,07,7.90
2004,07,04,00,08,7.90
2004,07,04,00,09,3.20
2004,07,04,00,10,4.70
2004,07,04,00,11,1.40
2004,07,04,00,12,7.90
2004,07,04,00,13,9.70
2004,07,04,00,14,4.70
2004,07,04,00,15,4.70
2004,07,04,00,16,17.60
2004,07,04,00,17,11.20
2004,07,04,00,18,4.70
2004,07,04,00,19,4.70
2004,07,04,00,20,7.90
2004,07,04,00,21,1.40
2004,07,04,00,22,9.70
2004,07,04,00,23,9.70
2004,07,04,00,24,9.70
2004,07,04,00,25,4.70
2004,07,04,00,26,3.20
2004,07,04,00,27,3.20
2004,07,04,00,28,3.20
2004,07,04,00,29,4.70
2004,07,04,00,30,7.90
2004,07,04,00,31,4.70
2004,07,04,00,32,4.70
2004,07,04,00,33,3.20
2004,07,04,00,34,7.90
2004,07,04,00,35,7.90
2004,07,04,00,36,4.70
2004,07,04,00,37,11.20
2004,07,04,00,38,11.20
2004,07,04,00,39,4.70
2004,07,04,00,40,11.20
2004,07,04,00,41,4.70
2004,07,04,00,42,7.90
2004,07,04,00,43,7.90
2004,07,04,00,44,9.70
2004,07,04,00,45,9.70
2004,07,04,00,46,7.90
2004,07,04,00,47,9.70
2004,07,04,00,48,4.70
2004,07,04,00,49,11.20
2004,07,04,00,50,7.90
2004,07,04,00,51,11.20
2004,07,04,00,52,7.90
2004,07,04,00,53,13.00
2004,07,04,00,54,13.00
2004,07,04,00,55,4.70
2004,07,04,00,56,4.70
2004,07,04,00,57,3.20
2004,07,04,00,58,9.70
2004,07,04,00,59,9.70
2004,07,04,01,00,4.70
2004,07,04,01,01,13.00
2004,07,04,01,02,11.20
2004,07,04,01,03,7.90
2004,07,04,01,04,9.70
2004,07,04,01,05,9.70
2004,07,04,01,06,4.70
2004,07,04,01,07,7.90
2004,07,04,01,08,9.70
2004,07,04,01,09,7.90
2004,07,04,01,10,7.90
2004,07,04,01,11,9.70
2004,07,04,01,12,9.70
2004,07,04,01,13,7.90
2004,07,04,01,14,7.90
2004,07,04,01,15,9.70
2004,07,04,01,16,9.70
2004,07,04,01,17,7.90
2004,07,04,01,18,4.70
2004,07,04,01,19,4.70
2004,07,04,01,20,9.70
2004,07,04,01,21,7.90
2004,07,04,01,22,4.70
2004,07,04,01,23,7.90
2004,07,04,01,24,3.20
2004,07,04,01,25,3.20
2004,07,04,01,26,7.90
2004,07,04,01,27,4.70
2004,07,04,01,28,4.70
2004,07,04,01,29,3.20
2004,07,04,01,30,4.70
2004,07,04,01,31,7.90
2004,07,04,01,32,3.20
2004,07,04,01,33,1.40
2004,07,04,01,34,3.20
2004,07,04,01,35,4.70
2004,07,04,01,36,1.40
2004,07,04,01,37,4.70
2004,07,04,01,38,3.20
2004,07,04,01,39,4.70
2004,07,04,01,40,3.20
2004,07,04,01,41,1.40
2004,07,04,01,42,1.40
2004,07,04,01,43,3.20
2004,07,04,01,44,3.20
2004,07,04,01,45,4.70
2004,07,04,01,46,4.70
2004,07,04,01,47,1.40
2004,07,04,01,48,1.40
2004,07,04,01,49,4.70
2004,07,04,01,50,1.40
2004,07,04,01,51,4.70
2004,07,04,01,52,3.20
2004,07,04,01,53,3.20
2004,07,04,01,54,3.20
2004,07,04,01,55,7.90
2004,07,04,01,56,7.90
2004,07,04,01,57,4.70
2004,07,04,01,58,0.00
2004,07,04,01,59,1.40
2004,07,04,02,00,1.40
2004,07,04,02,01,1.40
2004,07,04,02,02,1.40
2004,07,04,02,03,1.40
2004,07,04,02,04,3.20
2004,07,04,02,05,1.40
2004,07,04,02,06,1.40
2004,07,04,02,07,3.20
2004,07,04,02,08,3.20
2004,07,04,02,09,4.70
2004,07,04,02,10,4.70
2004,07,04,02,11,4.70
2004,07,04,02,12,7.90
2004,07,04,02,13,4.70
2004,07,04,02,14,3.20
2004,07,04,02,15,3.20
2004,07,04,02,16,3.20
2004,07,04,02,17,1.40
2004,07,04,02,18,0.00
2004,07,04,02,19,4.70
2004,07,04,02,20,3.20
2004,07,04,02,21,1.40
2004,07,04,02,22,3.20
2004,07,04,02,23,1.40
2004,07,04,02,24,1.40
2004,07,04,02,25,3.20
2004,07,04,02,26,3.20
2004,07,04,02,27,1.40
2004,07,04,02,28,4.70
2004,07,04,02,29,4.70
2004,07,04,02,30,4.70
2004,07,04,02,31,3.20
2004,07,04,02,32,1.40
2004,07,04,02,33,3.20
2004,07,04,02,34,3.20
2004,07,04,02,35,3.20
2004,07,04,02,36,0.00
2004,07,04,02,37,0.00
2004,07,04,02,38,3.20
2004,07,04,02,39,3.20
2004,07,04,02,40,1.40
2004,07,04,02,41,1.40
2004,07,04,02,42,4.70
2004,07,04,02,43,1.40
2004,07,04,02,44,1.40
2004,07,04,02,45,1.40
2004,07,04,02,46,1.40
2004,07,04,02,47,1.40
2004,07,04,02,48,0.00
2004,07,04,02,49,3.20
2004,07,04,02,50,3.20
2004,07,04,02,51,1.40
2004,07,04,02,52,1.40
2004,07,04,02,53,3.20
2004,07,04,02,54,1.40
2004,07,04,02,55,1.40
2004,07,04,02,56,1.40
2004,07,04,02,57,1.40
2004,07,04,02,58,1.40
2004,07,04,02,59,1.40
2004,07,04,03,00,1.40
2004,07,04,03,01,1.40
2004,07,04,03,02,0.00
2004,07,04,03,03,1.40
2004,07,04,03,04,1.40
2004,07,04,03,05,1.40
2004,07,04,03,06,1.40
2004,07,04,03,07,1.40
2004,07,04,03,08,1.40
2004,07,04,03,09,1.40
2004,07,04,03,10,1.40
2004,07,04,03,11,1.40
2004,07,04,03,12,1.40
2004,07,04,03,13,0.00
2004,07,04,03,14,0.00
2004,07,04,03,15,3.20
2004,07,04,03,16,1.40
2004,07,04,03,17,1.40
2004,07,04,03,18,1.40
2004,07,04,03,19,1.40
2004,07,04,03,20,1.40
2004,07,04,03,21,4.70
2004,07,04,03,22,1.40
2004,07,04,03,23,1.40
2004,07,04,03,24,1.40
2004,07,04,03,25,1.40
2004,07,04,03,26,1.40
2004,07,04,03,27,3.20
2004,07,04,03,28,4.70
2004,07,04,03,29,4.70
2004,07,04,03,30,1.40
2004,07,04,03,31,3.20
2004,07,04,03,32,1.40
2004,07,04,03,33,1.40
2004,07,04,03,34,3.20
2004,07,04,03,35,0.00
2004,07,04,03,36,1.40
2004,07,04,03,37,0.00
2004,07,04,03,38,0.00
2004,07,04,03,39,1.40
2004,07,04,03,40,3.20
2004,07,04,03,41,1.40
2004,07,04,03,42,3.20
2004,07,04,03,43,3.20
2004,07,04,03,44,4.70
2004,07,04,03,45,0.00
2004,07,04,03,46,1.40
2004,07,04,03,47,1.40
2004,07,04,03,48,1.40
2004,07,04,03,49,1.40
2004,07,04,03,50,1.40
2004,07,04,03,51,0.00
2004,07,04,03,52,4.70
2004,07,04,03,53,1.40
2004,07,04,03,54,0.00
2004,07,04,03,55,1.40
2004,07,04,03,56,3.20
2004,07,04,03,57,1.40
2004,07,04,03,58,1.40
2004,07,04,03,59,0.00
2004,07,04,04,00,1.40
2004,07,04,04,01,3.20
2004,07,04,04,02,3.20
2004,07,04,04,03,1.40
2004,07,04,04,04,0.00
2004,07,04,04,05,1.40
2004,07,04,04,06,1.40
2004,07,04,04,07,1.40
2004,07,04,04,08,3.20
2004,07,04,04,09,4.70
2004,07,04,04,10,3.20
2004,07,04,04,11,3.20
2004,07,04,04,12,3.20
2004,07,04,04,13,1.40
2004,07,04,04,14,3.20
2004,07,04,04,15,4.70
2004,07,04,04,16,1.40
2004,07,04,04,17,4.70
2004,07,04,04,18,1.40
2004,07,04,04,19,1.40
2004,07,04,04,20,0.00
2004,07,04,04,21,4.70
2004,07,04,04,22,1.40
2004,07,04,04,23,1.40
2004,07,04,04,24,3.20
2004,07,04,04,25,1.40
2004,07,04,04,26,1.40
2004,07,04,04,27,1.40
2004,07,04,04,28,0.00
2004,07,04,04,29,0.00
2004,07,04,04,30,1.40
2004,07,04,04,31,4.70
2004,07,04,04,32,4.70
2004,07,04,04,33,1.40
2004,07,04,04,34,3.20
2004,07,04,04,35,0.00
2004,07,04,04,36,0.00
2004,07,04,04,37,0.00
2004,07,04,04,38,1.40
2004,07,04,04,39,3.20
2004,07,04,04,40,3.20
2004,07,04,04,41,1.40
2004,07,04,04,42,3.20
2004,07,04,04,43,1.40
2004,07,04,04,44,1.40
2004,07,04,04,45,0.00
2004,07,04,04,46,0.00
2004,07,04,04,47,3.20
2004,07,04,04,48,1.40
2004,07,04,04,49,0.00
2004,07,04,04,50,1.40
2004,07,04,04,51,3.20
2004,07,04,04,52,1.40
2004,07,04,04,53,1.40
2004,07,04,04,54,3.20
2004,07,04,04,55,3.20
2004,07,04,04,56,3.20
2004,07,04,04,57,1.40
2004,07,04,04,58,0.00
2004,07,04,04,59,3.20
2004,07,04,05,00,3.20
2004,07,04,05,01,4.70
2004,07,04,05,02,1.40
2004,07,04,05,03,1.40
2004,07,04,05,04,1.40
2004,07,04,05,05,3.20
2004,07,04,05,06,1.40
2004,07,04,05,07,1.40
2004,07,04,05,08,1.40
2004,07,04,05,09,4.70
2004,07,04,05,10,3.20
2004,07,04,05,11,0.00
2004,07,04,05,12,3.20
2004,07,04,05,13,1.40
2004,07,04,05,14,3.20
2004,07,04,05,15,3.20
2004,07,04,05,16,1.40
2004,07,04,05,17,1.40
2004,07,04,05,18,0.00
2004,07,04,05,19,3.20
2004,07,04,05,20,1.40
2004,07,04,05,21,3.20
2004,07,04,05,22,0.00
2004,07,04,05,23,3.20
2004,07,04,05,24,3.20
2004,07,04,05,25,0.00
2004,07,04,05,26,1.40
2004,07,04,05,27,4.70
2004,07,04,05,28,3.20
2004,07,04,05,29,3.20
2004,07,04,05,30,3.20
2004,07,04,05,31,1.40
2004,07,04,05,32,1.40
2004,07,04,05,33,1.40
2004,07,04,05,34,1.40
2004,07,04,05,35,3.20
2004,07,04,05,36,3.20
2004,07,04,05,37,0.00
2004,07,04,05,38,0.00
2004,07,04,05,39,3.20
2004,07,04,05,40,0.00
2004,07,04,05,41,1.40
2004,07,04,05,42,0.00
2004,07,04,05,43,0.00
2004,07,04,05,44,3.20
2004,07,04,05,45,3.20
2004,07,04,05,46,1.40
2004,07,04,05,47,1.40
2004,07,04,05,48,1.40
2004,07,04,05,49,1.40
2004,07,04,05,50,1.40
2004,07,04,05,51,0.00
2004,07,04,05,52,1.40
2004,07,04,05,53,0.00
2004,07,04,05,54,1.40
2004,07,04,05,55,1.40
2004,07,04,05,56,0.00
2004,07,04,05,57,3.20
2004,07,04,05,58,1.40
2004,07,04,05,59,1.40
2004,07,04,06,00,3.20
2004,07,04,06,01,1.40
2004,07,04,06,02,3.20
2004,07,04,06,03,3.20
2004,07,04,06,04,3.20
2004,07,04,06,05,3.20
2004,07,04,06,06,3.20
2004,07,04,06,07,1.40
2004,07,04,06,08,0.00
2004,07,04,06,09,1.40
2004,07,04,06,10,1.40
2004,07,04,06,11,1.40
2004,07,04,06,12,3.20
2004,07,04,06,13,3.20
2004,07,04,06,14,1.40
2004,07,04,06,15,3.20
2004,07,04,06,16,4.70
2004,07,04,06,17,1.40
2004,07,04,06,18,1.40
2004,07,04,06,19,3.20
2004,07,04,06,20,0.00
2004,07,04,06,21,4.70
2004,07,04,06,22,4.70
2004,07,04,06,23,1.40
2004,07,04,06,24,3.20
2004,07,04,06,25,3.20
2004,07,04,06,26,1.40
2004,07,04,06,27,3.20
2004,07,04,06,28,1.40
2004,07,04,06,29,3.20
2004,07,04,06,30,3.20
2004,07,04,06,31,4.70
2004,07,04,06,32,7.90
2004,07,04,06,33,3.20
2004,07,04,06,34,1.40
2004,07,04,06,35,3.20
2004,07,04,06,36,3.20
2004,07,04,06,37,1.40
2004,07,04,06,38,3.20
2004,07,04,06,39,1.40
2004,07,04,06,40,1.40
2004,07,04,06,41,3.20
2004,07,04,06,42,1.40
2004,07,04,06,43,1.40
2004,07,04,06,44,1.40
2004,07,04,06,45,3.20
2004,07,04,06,46,3.20
2004,07,04,06,47,4.70
2004,07,04,06,48,4.70
2004,07,04,06,49,1.40
2004,07,04,06,50,1.40
2004,07,04,06,51,3.20
2004,07,04,06,52,1.40
2004,07,04,06,53,3.20
2004,07,04,06,54,4.70
2004,07,04,06,55,3.20
2004,07,04,06,56,3.20
2004,07,04,06,57,1.40
2004,07,04,06,58,3.20
2004,07,04,06,59,1.40
2004,07,04,07,00,1.40
2004,07,04,07,01,3.20
2004,07,04,07,02,3.20
2004,07,04,07,03,3.20
2004,07,04,07,04,3.20
2004,07,04,07,05,3.20
2004,07,04,07,06,1.40
2004,07,04,07,07,3.20
2004,07,04,07,08,0.00
2004,07,04,07,09,3.20
2004,07,04,07,10,3.20
2004,07,04,07,11,0.00
2004,07,04,07,12,0.00
2004,07,04,07,13,0.00
2004,07,04,07,14,0.00
2004,07,04,07,15,1.40
2004,07,04,07,16,1.40
2004,07,04,07,17,3.20
2004,07,04,07,18,1.40
2004,07,04,07,19,1.40
2004,07,04,07,20,0.00
2004,07,04,07,21,1.40
2004,07,04,07,22,1.40
2004,07,04,07,23,3.20
2004,07,04,07,24,1.40
2004,07,04,07,25,1.40
2004,07,04,07,26,1.40
2004,07,04,07,27,1.40
2004,07,04,07,28,1.40
2004,07,04,07,29,1.40
2004,07,04,07,30,0.00
2004,07,04,07,31,1.40
2004,07,04,07,32,1.40
2004,07,04,07,33,1.40
2004,07,04,07,34,3.20
2004,07,04,07,35,1.40
2004,07,04,07,36,4.70
2004,07,04,07,37,4.70
2004,07,04,07,38,4.70
2004,07,04,07,39,7.90
2004,07,04,07,40,7.90
2004,07,04,07,41,3.20
2004,07,04,07,42,7.90
2004,07,04,07,43,4.70
2004,07,04,07,44,4.70
2004,07,04,07,45,7.90
2004,07,04,07,46,4.70
2004,07,04,07,47,3.20
2004,07,04,07,48,3.20
2004,07,04,07,49,7.90
2004,07,04,07,50,3.20
2004,07,04,07,51,9.70
2004,07,04,07,52,4.70
2004,07,04,07,53,3.20
2004,07,04,07,54,7.90
2004,07,04,07,55,7.90
2004,07,04,07,56,4.70
2004,07,04,07,57,3.20
2004,07,04,07,58,3.20
2004,07,04,07,59,4.70
2004,07,04,08,00,1.40
2004,07,04,08,01,1.40
2004,07,04,08,02,1.40
2004,07,04,08,03,3.20
2004,07,04,08,04,7.90
2004,07,04,08,05,9.70
2004,07,04,08,06,4.70
2004,07,04,08,07,1.40
2004,07,04,08,08,1.40
2004,07,04,08,09,3.20
2004,07,04,08,10,4.70
2004,07,04,08,11,1.40
2004,07,04,08,12,9.70
2004,07,04,08,13,7.90
2004,07,04,08,14,1.40
2004,07,04,08,15,7.90
2004,07,04,08,16,3.20
2004,07,04,08,17,3.20
2004,07,04,08,18,4.70
2004,07,04,08,19,7.90
2004,07,04,08,20,9.70
2004,07,04,08,21,9.70
2004,07,04,08,22,4.70
2004,07,04,08,23,4.70
2004,07,04,08,24,7.90
2004,07,04,08,25,4.70
2004,07,04,08,26,9.70
2004,07,04,08,27,7.90
2004,07,04,08,28,4.70
2004,07,04,08,29,9.70
2004,07,04,08,30,7.90
2004,07,04,08,31,7.90
2004,07,04,08,32,4.70
2004,07,04,08,33,3.20
2004,07,04,08,34,3.20
2004,07,04,08,35,4.70
2004,07,04,08,36,3.20
2004,07,04,08,37,3.20
2004,07,04,08,38,3.20
2004,07,04,08,39,4.70
2004,07,04,08,40,3.20
2004,07,04,08,41,3.20
2004,07,04,08,42,7.90
2004,07,04,08,43,1.40
2004,07,04,08,44,3.20
2004,07,04,08,45,9.70
2004,07,04,08,46,9.70
2004,07,04,08,47,11.20
2004,07,04,08,48,7.90
2004,07,04,08,49,1.40
2004,07,04,08,50,3.20
2004,07,04,08,51,7.90
2004,07,04,08,52,7.90
2004,07,04,08,53,3.20
2004,07,04,08,54,3.20
2004,07,04,08,55,4.70
2004,07,04,08,56,1.40
2004,07,04,08,57,1.40
2004,07,04,08,58,3.20
2004,07,04,08,59,3.20
2004,07,04,09,00,3.20
2004,07,04,09,01,3.20
2004,07,04,09,02,1.40
2004,07,04,09,03,1.40
2004,07,04,09,04,1.40
2004,07,04,09,05,1.40
2004,07,04,09,06,0.00
2004,07,04,09,07,1.40
2004,07,04,09,08,0.00
2004,07,04,09,09,0.00
2004,07,04,09,10,1.40
2004,07,04,09,11,1.40
2004,07,04,09,12,7.90
2004,07,04,09,13,7.90
2004,07,04,09,14,0.00
2004,07,04,09,15,1.40
2004,07,04,09,16,1.40
2004,07,04,09,17,4.70
2004,07,04,09,18,4.70
2004,07,04,09,19,4.70
2004,07,04,09,20,9.70
2004,07,04,09,21,7.90
2004,07,04,09,22,4.70
2004,07,04,09,23,7.90
2004,07,04,09,24,11.20
2004,07,04,09,25,11.20
2004,07,04,09,26,11.20
2004,07,04,09,27,13.00
2004,07,04,09,28,13.00
2004,07,04,09,29,7.90
2004,07,04,09,30,7.90
2004,07,04,09,31,9.70
2004,07,04,09,32,9.70
2004,07,04,09,33,11.20
2004,07,04,09,34,11.20
2004,07,04,09,35,13.00
2004,07,04,09,36,9.70
2004,07,04,09,37,7.90
2004,07,04,09,38,9.70
2004,07,04,09,39,9.70
2004,07,04,09,40,9.70
2004,07,04,09,41,7.90
2004,07,04,09,42,9.70
2004,07,04,09,43,9.70
2004,07,04,09,44,9.70
2004,07,04,09,45,7.90
2004,07,04,09,46,11.20
2004,07,04,09,47,11.20
2004,07,04,09,48,9.70
2004,07,04,09,49,9.70
2004,07,04,09,50,11.20
2004,07,04,09,51,9.70
2004,07,04,09,52,9.70
2004,07,04,09,53,7.90
2004,07,04,09,54,7.90
2004,07,04,09,55,9.70
2004,07,04,09,56,11.20
2004,07,04,09,57,7.90
2004,07,04,09,58,9.70
2004,07,04,09,59,9.70
2004,07,04,10,00,7.90
2004,07,04,10,01,11.20
2004,07,04,10,02,13.00
2004,07,04,10,03,13.00
2004,07,04,10,04,11.20
2004,07,04,10,05,9.70
2004,07,04,10,06,11.20
2004,07,04,10,07,11.20
2004,07,04,10,08,13.00
2004,07,04,10,09,13.00
2004,07,04,10,10,13.00
2004,07,04,10,11,11.20
2004,07,04,10,12,11.20
2004,07,04,10,13,11.20
2004,07,04,10,14,11.20
2004,07,04,10,15,9.70
2004,07,04,10,16,13.00
2004,07,04,10,17,16.20
2004,07,04,10,18,13.00
2004,07,04,10,19,9.70
2004,07,04,10,20,9.70
2004,07,04,10,21,11.20
2004,07,04,10,22,13.00
2004,07,04,10,23,9.70
2004,07,04,10,24,11.20
2004,07,04,10,25,9.70
2004,07,04,10,26,9.70
2004,07,04,10,27,11.20
2004,07,04,10,28,13.00
2004,07,04,10,29,11.20
2004,07,04,10,30,9.70
2004,07,04,10,31,11.20
2004,07,04,10,32,11.20
2004,07,04,10,33,13.00
2004,07,04,10,34,16.20
2004,07,04,10,35,17.60
2004,07,04,10,36,13.00
2004,07,04,10,37,13.00
2004,07,04,10,38,16.20
2004,07,04,10,39,11.20
2004,07,04,10,40,13.00
2004,07,04,10,41,11.20
2004,07,04,10,42,9.70
2004,07,04,10,43,11.20
2004,07,04,10,44,16.20
2004,07,04,10,45,13.00
2004,07,04,10,46,13.00
2004,07,04,10,47,11.20
2004,07,04,10,48,13.00
2004,07,04,10,49,13.00
2004,07,04,10,50,13.00
2004,07,04,10,51,11.20
2004,07,04,10,52,16.20
2004,07,04,10,53,16.20
2004,07,04,10,54,11.20
2004,07,04,10,55,13.00
2004,07,04,10,56,17.60
2004,07,04,10,57,16.20
2004,07,04,10,58,17.60
2004,07,04,10,59,13.00
2004,07,04,11,00,17.60
2004,07,04,11,01,17.60
2004,07,04,11,02,13.00
2004,07,04,11,03,17.60
2004,07,04,11,04,17.60
2004,07,04,11,05,11.20
2004,07,04,11,06,19.40
2004,07,04,11,07,17.60
2004,07,04,11,08,19.40
2004,07,04,11,09,17.60
2004,07,04,11,10,13.00
2004,07,04,11,11,13.00
2004,07,04,11,12,16.20
2004,07,04,11,13,11.20
2004,07,04,11,14,13.00
2004,07,04,11,15,11.20
2004,07,04,11,16,16.20
2004,07,04,11,17,16.20
2004,07,04,11,18,16.20
2004,07,04,11,19,11.20
2004,07,04,11,20,16.20
2004,07,04,11,21,16.20
2004,07,04,11,22,17.60
2004,07,04,11,23,9.70
2004,07,04,11,24,17.60
2004,07,04,11,25,17.60
2004,07,04,11,26,13.00
2004,07,04,11,27,19.40
2004,07,04,11,28,20.90
2004,07,04,11,29,16.20
2004,07,04,11,30,16.20
2004,07,04,11,31,11.20
2004,07,04,11,32,11.20
2004,07,04,11,33,9.70
2004,07,04,11,34,13.00
2004,07,04,11,35,16.20
2004,07,04,11,36,16.20
2004,07,04,11,37,17.60
2004,07,04,11,38,13.00
2004,07,04,11,39,13.00
2004,07,04,11,40,13.00
2004,07,04,11,41,9.70
2004,07,04,11,42,13.00
2004,07,04,11,43,11.20
2004,07,04,11,44,9.70
2004,07,04,11,45,16.20
2004,07,04,11,46,16.20
2004,07,04,11,47,13.00
2004,07,04,11,48,9.70
2004,07,04,11,49,13.00
2004,07,04,11,50,17.60
2004,07,04,11,51,13.00
2004,07,04,11,52,19.40
2004,07,04,11,53,17.60
2004,07,04,11,54,11.20
2004,07,04,11,55,17.60
2004,07,04,11,56,16.20
2004,07,04,11,57,16.20
2004,07,04,11,58,20.90
2004,07,04,11,59,13.00
2004,07,04,12,00,11.20
2004,07,04,12,01,11.20
2004,07,04,12,02,16.20
2004,07,04,12,03,13.00
2004,07,04,12,04,9.70
2004,07,04,12,05,11.20
2004,07,04,12,06,13.00
2004,07,04,12,07,11.20
2004,07,04,12,08,11.20
2004,07,04,12,09,9.70
2004,07,04,12,10,9.70
2004,07,04,12,11,4.70
2004,07,04,12,12,7.90
2004,07,04,12,13,11.20
2004,07,04,12,14,9.70
2004,07,04,12,15,7.90
2004,07,04,12,16,4.70
2004,07,04,12,17,1.40
2004,07,04,12,18,3.20
2004,07,04,12,19,4.70
2004,07,04,12,20,7.90
2004,07,04,12,21,4.70
2004,07,04,12,22,11.20
2004,07,04,12,23,4.70
2004,07,04,12,24,1.40
2004,07,04,12,25,3.20
2004,07,04,12,26,9.70
2004,07,04,12,27,17.60
2004,07,04,12,28,16.20
2004,07,04,12,29,13.00
2004,07,04,12,30,11.20
2004,07,04,12,31,9.70
2004,07,04,12,32,9.70
2004,07,04,12,33,11.20
2004,07,04,12,34,9.70
2004,07,04,12,35,4.70
2004,07,04,12,36,7.90
2004,07,04,12,37,19.40
2004,07,04,12,38,9.70
2004,07,04,12,39,3.20
2004,07,04,12,40,7.90
2004,07,04,12,41,16.20
2004,07,04,12,42,28.80
2004,07,04,12,43,9.70
2004,07,04,12,44,16.20
2004,07,04,12,45,13.00
2004,07,04,12,46,20.90
2004,07,04,12,47,9.70
2004,07,04,12,48,7.90
2004,07,04,12,49,13.00
2004,07,04,12,50,13.00
2004,07,04,12,51,13.00
2004,07,04,12,52,7.90
2004,07,04,12,53,17.60
2004,07,04,12,54,7.90
2004,07,04,12,55,22.70
2004,07,04,12,56,25.90
2004,07,04,12,57,9.70
2004,07,04,12,58,17.60
2004,07,04,12,59,17.60
2004,07,04,13,00,7.90
2004,07,04,13,01,17.60
2004,07,04,13,02,16.20
2004,07,04,13,03,7.90
2004,07,04,13,04,11.20
2004,07,04,13,05,9.70
2004,07,04,13,06,13.00
2004,07,04,13,07,19.40
2004,07,04,13,08,9.70
2004,07,04,13,09,13.00
2004,07,04,13,10,16.20
2004,07,04,13,11,4.70
2004,07,04,13,12,13.00
2004,07,04,13,13,13.00
2004,07,04,13,14,9.70
2004,07,04,13,15,7.90
2004,07,04,13,16,17.60
2004,07,04,13,17,20.90
2004,07,04,13,18,13.00
2004,07,04,13,19,17.60
2004,07,04,13,20,9.70
2004,07,04,13,21,19.40
2004,07,04,13,22,11.20
2004,07,04,13,23,19.40
2004,07,04,13,24,3.20
2004,07,04,13,25,9.70
2004,07,04,13,26,11.20
2004,07,04,13,27,17.60
2004,07,04,13,28,19.40
2004,07,04,13,29,20.90
2004,07,04,13,30,20.90
2004,07,04,13,31,13.00
2004,07,04,13,32,16.20
2004,07,04,13,33,22.70
2004,07,04,13,34,9.70
2004,07,04,13,35,20.90
2004,07,04,13,36,20.90
2004,07,04,13,37,9.70
2004,07,04,13,38,13.00
2004,07,04,13,39,19.40
2004,07,04,13,40,13.00
2004,07,04,13,41,20.90
2004,07,04,13,42,16.20
2004,07,04,13,43,20.90
2004,07,04,13,44,13.00
2004,07,04,13,45,11.20
2004,07,04,13,46,16.20
2004,07,04,13,47,11.20
2004,07,04,13,48,11.20
2004,07,04,13,49,9.70
2004,07,04,13,50,16.20
2004,07,04,13,51,13.00
2004,07,04,13,52,20.90
2004,07,04,13,53,9.70
2004,07,04,13,54,19.40
2004,07,04,13,55,17.60
2004,07,04,13,56,11.20
2004,07,04,13,57,13.00
2004,07,04,13,58,11.20
2004,07,04,13,59,11.20
2004,07,04,14,00,16.20
2004,07,04,14,01,22.70
2004,07,04,14,02,20.90
2004,07,04,14,03,17.60
2004,07,04,14,04,27.40
2004,07,04,14,05,19.40
2004,07,04,14,06,19.40
2004,07,04,14,07,17.60
2004,07,04,14,08,11.20
2004,07,04,14,09,20.90
2004,07,04,14,10,11.20
2004,07,04,14,11,9.70
2004,07,04,14,12,17.60
2004,07,04,14,13,7.90
2004,07,04,14,14,20.90
2004,07,04,14,15,17.60
2004,07,04,14,16,11.20
2004,07,04,14,17,19.40
2004,07,04,14,18,17.60
2004,07,04,14,19,25.90
2004,07,04,14,20,17.60
2004,07,04,14,21,11.20
2004,07,04,14,22,13.00
2004,07,04,14,23,16.20
2004,07,04,14,24,17.60
2004,07,04,14,25,13.00
2004,07,04,14,26,9.70
2004,07,04,14,27,16.20
2004,07,04,14,28,28.80
2004,07,04,14,29,25.90
2004,07,04,14,30,22.70
2004,07,04,14,31,27.40
2004,07,04,14,32,20.90
2004,07,04,14,33,22.70
2004,07,04,14,34,17.60
2004,07,04,14,35,28.80
2004,07,04,14,36,28.80
2004,07,04,14,37,27.40
2004,07,04,14,38,13.00
2004,07,04,14,39,25.90
2004,07,04,14,40,4.70
2004,07,04,14,41,20.90
2004,07,04,14,42,19.40
2004,07,04,14,43,13.00
2004,07,04,14,44,13.00
2004,07,04,14,45,17.60
2004,07,04,14,46,9.70
2004,07,04,14,47,11.20
2004,07,04,14,48,13.00
2004,07,04,14,49,20.90
2004,07,04,14,50,13.00
2004,07,04,14,51,20.90
2004,07,04,14,52,17.60
2004,07,04,14,53,16.20
2004,07,04,14,54,16.20
2004,07,04,14,55,13.00
2004,07,04,14,56,20.90
2004,07,04,14,57,16.20
2004,07,04,14,58,16.20
2004,07,04,14,59,19.40
2004,07,04,15,00,22.70
2004,07,04,15,01,17.60
2004,07,04,15,02,17.60
2004,07,04,15,03,17.60
2004,07,04,15,04,4.70
2004,07,04,15,05,13.00
2004,07,04,15,06,30.60
2004,07,04,15,07,16.20
2004,07,04,15,08,19.40
2004,07,04,15,09,19.40
2004,07,04,15,10,17.60
2004,07,04,15,11,16.20
2004,07,04,15,12,9.70
2004,07,04,15,13,22.70
2004,07,04,15,14,19.40
2004,07,04,15,15,20.90
2004,07,04,15,16,9.70
2004,07,04,15,17,9.70
2004,07,04,15,18,20.90
2004,07,04,15,19,13.00
2004,07,04,15,20,13.00
2004,07,04,15,21,9.70
2004,07,04,15,22,20.90
2004,07,04,15,23,13.00
2004,07,04,15,24,13.00
2004,07,04,15,25,13.00
2004,07,04,15,26,13.00
2004,07,04,15,27,25.90
2004,07,04,15,28,25.90
2004,07,04,15,29,17.60
2004,07,04,15,30,17.60
2004,07,04,15,31,16.20
2004,07,04,15,32,13.00
2004,07,04,15,33,22.70
2004,07,04,15,34,22.70
2004,07,04,15,35,25.90
2004,07,04,15,36,16.20
2004,07,04,15,37,16.20
2004,07,04,15,38,11.20
2004,07,04,15,39,7.90
2004,07,04,15,40,11.20
2004,07,04,15,41,11.20
2004,07,04,15,42,13.00
2004,07,04,15,43,19.40
2004,07,04,15,44,20.90
2004,07,04,15,45,9.70
2004,07,04,15,46,13.00
2004,07,04,15,47,9.70
2004,07,04,15,48,9.70
2004,07,04,15,49,13.00
2004,07,04,15,50,17.60
2004,07,04,15,51,11.20
2004,07,04,15,52,20.90
2004,07,04,15,53,20.90
2004,07,04,15,54,11.20
2004,07,04,15,55,17.60
2004,07,04,15,56,27.40
2004,07,04,15,57,19.40
2004,07,04,15,58,17.60
2004,07,04,15,59,22.70
2004,07,04,16,00,20.90
2004,07,04,16,01,13.00
2004,07,04,16,02,22.70
2004,07,04,16,03,22.70
2004,07,04,16,04,17.60
2004,07,04,16,05,19.40
2004,07,04,16,06,28.80
2004,07,04,16,07,16.20
2004,07,04,16,08,17.60
2004,07,04,16,09,25.90
2004,07,04,16,10,20.90
2004,07,04,16,11,33.80
2004,07,04,16,12,17.60
2004,07,04,16,13,17.60
2004,07,04,16,14,17.60
2004,07,04,16,15,13.00
2004,07,04,16,16,11.20
2004,07,04,16,17,25.90
2004,07,04,16,18,19.40
2004,07,04,16,19,25.90
2004,07,04,16,20,17.60
2004,07,04,16,21,25.90
2004,07,04,16,22,17.60
2004,07,04,16,23,11.20
2004,07,04,16,24,25.90
2004,07,04,16,25,22.70
2004,07,04,16,26,20.90
2004,07,04,16,27,27.40
2004,07,04,16,28,16.20
2004,07,04,16,29,30.60
2004,07,04,16,30,16.20
2004,07,04,16,31,17.60
2004,07,04,16,32,22.70
2004,07,04,16,33,13.00
2004,07,04,16,34,19.40
2004,07,04,16,35,17.60
2004,07,04,16,36,11.20
2004,07,04,16,37,30.60
2004,07,04,16,38,32.00
2004,07,04,16,39,25.90
2004,07,04,16,40,17.60
2004,07,04,16,41,20.90
2004,07,04,16,42,28.80
2004,07,04,16,43,17.60
2004,07,04,16,44,22.70
2004,07,04,16,45,28.80
2004,07,04,16,46,20.90
2004,07,04,16,47,27.40
2004,07,04,16,48,25.90
2004,07,04,16,49,20.90
2004,07,04,16,50,28.80
2004,07,04,16,51,22.70
2004,07,04,16,52,16.20
2004,07,04,16,53,20.90
2004,07,04,16,54,25.90
2004,07,04,16,55,17.60
2004,07,04,16,56,17.60
2004,07,04,16,57,20.90
2004,07,04,16,58,28.80
2004,07,04,16,59,25.90
2004,07,04,17,00,11.20
2004,07,04,17,01,11.20
2004,07,04,17,02,19.40
2004,07,04,17,03,20.90
2004,07,04,17,04,25.90
2004,07,04,17,05,28.80
2004,07,04,17,06,17.60
2004,07,04,17,07,13.00
2004,07,04,17,08,20.90
2004,07,04,17,09,22.70
2004,07,04,17,10,17.60
2004,07,04,17,11,22.70
2004,07,04,17,12,16.20
2004,07,04,17,13,17.60
2004,07,04,17,14,22.70
2004,07,04,17,15,25.90
2004,07,04,17,16,27.40
2004,07,04,17,17,17.60
2004,07,04,17,18,17.60
2004,07,04,17,19,13.00
2004,07,04,17,20,16.20
2004,07,04,17,21,13.00
2004,07,04,17,22,20.90
2004,07,04,17,23,20.90
2004,07,04,17,24,13.00
2004,07,04,17,25,25.90
2004,07,04,17,26,20.90
2004,07,04,17,27,11.20
2004,07,04,17,28,13.00
2004,07,04,17,29,22.70
2004,07,04,17,30,19.40
2004,07,04,17,31,13.00
2004,07,04,17,32,16.20
2004,07,04,17,33,19.40
2004,07,04,17,34,13.00
2004,07,04,17,35,11.20
2004,07,04,17,36,28.80
2004,07,04,17,37,25.90
2004,07,04,17,38,19.40
2004,07,04,17,39,16.20
2004,07,04,17,40,25.90
2004,07,04,17,41,25.90
2004,07,04,17,42,32.00
2004,07,04,17,43,27.40
2004,07,04,17,44,25.90
2004,07,04,17,45,22.70
2004,07,04,17,46,16.20
2004,07,04,17,47,9.70